METEOR-M 2

Last updated on Mon Jul 07 2025 00:02:20 GMT+0000 (Coordinated Universal Time)

1 40069U 14037A 25187.58281979 .00000087 00000+0 59220-4 0 9992 2 40069 98.4688 171.4333 0005103 332.5820 27.5088 14.21306465570226
UTC large
Height (km)
Speed (km/s)
/
Latitude / Longitude
Inclination (degrees)
Orbital Period (minutes)
Azimuth
Elevation
Range (km)
Doppler Factor

Next 0 passes for location: London (51.5072 / 0.1276)

Sorry there are no passes over London.